Tracking 30685 objects as of 18-Jun-2025
HD Live streaming from Space Station
objects crossing your sky now

STARLINK-32149

Track STARLINK-32149 now!
10-day predictions
STARLINK-32149 is classified as:


NORAD ID: 60292
Int'l Code: 2024-132Q
Perigee: 481.5 km
Apogee: 483.3 km
Inclination: 53.2 °
Period: 94.1 minutes
Semi major axis: 6853 km
RCS: Unknown
Launch date: July 28, 2024
Source: United States (US)
Launch site: AIR FORCE EASTERN TEST RANGE (AFETR)
Your satellite tracking list
Your tracking list is empty




NASA's NSSDC Master Catalog

Two Line Element Set (TLE):
1 60292U 24132Q   25167.82957275  .00000981  00000-0  45266-4 0  9992
2 60292  53.1592 207.4955 0001349  86.1335 273.9820 15.30187074 50856
Source of the keplerian elements: AFSPC